KC7WRB Weather Reports


time (UTC)temp
C
wind
direction
speed
KPH
gust
KPH
rain 1hr
cm
rain 24hr
cm
rain mn
cm
humidity
%
barometer
mb
20260506015818 16 200 1.6 1.6 0.00 0.76 0.76 51 1013.5
20260506015316 16 203 3.2 3.2 0.00 0.76 0.76 51 1013.5
20260506014812 16 192 3.2 3.2 0.00 0.76 0.76 50 1013.5
20260506014309 16 161 1.6 3.2 0.00 0.76 0.76 50 1013.5
20260506013806 16 155 4.8 6.4 0.00 0.76 0.76 47 1013.4
20260506013303 16 153 8.0 9.7 0.00 0.76 0.76 48 1013.5
20260506012759 16 149 9.7 11.3 0.00 0.76 0.76 48 1013.5
20260506012256 16 140 6.4 9.7 0.00 0.76 0.76 49 1013.5
20260506011754 16 198 6.4 6.4 0.00 0.76 0.76 49 1013.7
20260506011250 16 210 4.8 6.4 0.00 0.76 0.76 48 1013.8
20260506010748 16 165 6.4 9.7 0.00 0.76 0.76 48 1013.8
20260506010245 16 146 8.0 11.3 0.00 0.76 0.76 48 1013.7
20260506005742 16 160 9.7 11.3 0.00 0.76 0.76 47 1013.7
20260506005239 16 144 6.4 9.7 0.00 0.76 0.76 47 1013.9
20260506004735 16 143 9.7 11.3 0.00 0.76 0.76 46 1013.5
20260506004233 16 145 12.9 14.5 0.00 0.76 0.76 47 1013.5
20260506003728 16 143 6.4 6.4 0.00 0.76 0.76 47 1013.9
20260506003225 16 141 8.0 11.3 0.00 0.76 0.76 50 1013.7
20260506002721 16 138 9.7 12.9 0.00 0.76 0.76 46 1013.4
20260506002217 16 87 6.4 9.7 0.00 0.76 0.76 46 1013.9
20260506001713 16 92 8.0 9.7 0.00 0.76 0.76 48 1013.5
20260506001211 16 146 9.7 12.9 0.00 0.76 0.76 48 1013.4
20260506000708 16 132 9.7 11.3 0.00 0.76 0.76 46 1013.8
20260506000205 16 178 8.0 9.7 0.00 0.76 0.76 47 1013.5
20260505235703 17 119 11.3 12.9 0.00 0.76 0.76 46 1013.4
20260505235200 17 137 9.7 11.3 0.00 0.76 0.76 45 1013.7
20260505234657 17 138 9.7 11.3 0.00 0.76 0.76 45 1013.7
20260505234154 17 140 4.8 6.4 0.00 0.76 0.76 44 1013.8
20260505233645 17 154 3.2 3.2 0.00 0.76 0.76 47 1013.5
20260505233143 16 129 8.0 11.3 0.00 0.76 0.76 49 1013.5
20260505232641 17 137 8.0 9.7 0.00 0.76 0.76 46 1013.8
20260505232138 16 154 1.6 1.6 0.00 0.76 0.76 47 1013.9
20260505231634 16 77 3.2 3.2 0.00 0.76 0.76 50 1013.8
20260505231134 16 77 1.6 1.6 0.00 0.76 0.76 49 1013.8
20260505230631 16 112 12.9 12.9 0.00 0.76 0.76 51 1013.7
20260505230127 16 98 4.8 4.8 0.00 0.76 0.76 52 1013.8
20260505225624 16 92 6.4 9.7 0.00 0.76 0.76 50 1014.0
20260505225120 16 147 6.4 6.4 0.00 0.76 0.76 51 1013.9
20260505224617 16 137 1.6 4.8 0.00 0.76 0.76 53 1013.8
20260505224114 16 90 8.0 9.7 0.00 0.76 0.76 50 1013.8
20260505223611 17 330 17.7 20.9 0.00 0.76 0.76 48 1014.0
20260505223107 17 269 1.6 3.2 0.00 0.76 0.76 46 1014.0
20260505222603 16 237 3.2 3.2 0.00 0.76 0.76 50 1014.2
20260505222059 15 166 6.4 6.4 0.00 0.76 0.76 52 1014.2
20260505221557 15 146 6.4 6.4 0.00 0.76 0.76 52 1014.1
20260505221053 16 148 8.0 9.7 0.00 0.76 0.76 50 1014.4
20260505220551 15 203 3.2 4.8 0.00 0.76 0.76 53 1014.4
20260505220049 15 126 1.6 3.2 0.00 0.76 0.76 53 1014.4
20260505215546 15 132 6.4 9.7 0.00 0.76 0.76 57 1014.4
20260505215044 15 130 12.9 14.5 0.00 0.76 0.76 54 1014.7
20260505214542 15 125 4.8 4.8 0.00 0.76 0.76 53 1014.6
20260505214038 15 187 1.6 1.6 0.00 0.76 0.76 56 1014.6
20260505213536 15 199 6.4 6.4 0.00 0.76 0.76 58 1014.7
20260505213032 15 163 1.6 3.2 0.00 0.76 0.76 60 1014.6
20260505212528 15 268 8.0 9.7 0.00 0.76 0.76 57 1014.7
20260505212026 15 200 3.2 4.8 0.00 0.76 0.76 64 1014.8
20260505211523 14 219 3.2 6.4 0.00 0.76 0.76 68 1014.6
20260505211019 14 106 9.7 11.3 0.00 0.76 0.76 60 1014.8
20260505210516 13 317 3.2 4.8 0.00 0.76 0.76 59 1014.8
20260505210013 13 119 8.0 9.7 0.00 0.76 0.76 64 1014.8
20260505205511 13 194 4.8 6.4 0.00 0.76 0.76 62 1014.9
20260505205008 13 111 4.8 4.8 0.00 0.76 0.76 63 1014.9
20260505204506 13 164 1.6 3.2 0.00 0.76 0.76 63 1014.9
20260505204003 13 161 4.8 9.7 0.00 0.76 0.76 61 1015.0
20260505203459 13 147 6.4 6.4 0.00 0.76 0.76 64 1015.3
20260505202955 12 106 4.8 4.8 0.00 0.76 0.76 65 1015.0
20260505202452 13 114 6.4 6.4 0.00 0.76 0.76 64 1015.0
20260505201948 13 202 0.0 1.6 0.00 0.76 0.76 69 1014.8
20260505201445 13 183 0.0 1.6 0.00 0.76 0.76 62 1015.2
20260505200943 13 111 9.7 11.3 0.00 0.76 0.76 64 1015.0
20260505200441 13 171 6.4 6.4 0.00 0.76 0.76 65 1014.9
20260505195936 12 180 1.6 1.6 0.00 0.76 0.76 67 1015.3
20260505195433 12 152 6.4 6.4 0.00 0.76 0.76 65 1015.2
20260505194931 12 170 9.7 14.5 0.00 0.76 0.76 68 1015.2
20260505194428 12 124 6.4 9.7 0.00 0.76 0.76 70 1015.3
20260505193928 12 182 3.2 3.2 0.00 0.76 0.76 71 1014.9
20260505193426 12 193 9.7 12.9 0.00 0.76 0.76 70 1015.0
20260505192924 12 208 8.0 12.9 0.00 0.76 0.76 73 1015.0
20260505192422 12 196 3.2 3.2 0.00 0.76 0.76 73 1015.2
20260505191919 12 141 6.4 9.7 0.00 0.76 0.76 72 1015.3
20260505191418 11 203 1.6 1.6 0.00 0.76 0.76 65 1015.4
20260505190914 11 210 0.0 0.0 0.00 0.76 0.76 70 1015.4
20260505190409 11 243 3.2 3.2 0.00 0.76 0.76 67 1015.3
20260505185905 10 203 1.6 3.2 0.00 0.76 0.76 69 1015.4
20260505185402 10 169 1.6 1.6 0.00 0.76 0.76 72 1015.2
20260505184858 10 154 3.2 4.8 0.00 0.76 0.76 78 1015.4
20260505184355 10 182 3.2 3.2 0.00 0.76 0.76 79 1015.3
20260505183852 10 207 6.4 6.4 0.00 0.76 0.76 79 1015.2
20260505183349 10 174 1.6 1.6 0.00 0.76 0.76 79 1015.2
20260505182846 9 204 3.2 4.8 0.00 0.76 0.76 81 1015.3
20260505182343 9 183 4.8 4.8 0.00 0.76 0.76 80 1015.3
20260505181839 9 152 1.6 3.2 0.00 0.76 0.76 80 1015.0
20260505181336 9 161 3.2 3.2 0.00 0.76 0.76 82 1015.0
20260505180833 9 126 3.2 3.2 0.00 0.76 0.76 81 1014.7
20260505180329 8 195 4.8 6.4 0.00 0.76 0.76 81 1014.8
20260505175826 8 216 3.2 4.8 0.00 0.76 0.76 81 1014.7
20260505175322 8 153 0.0 1.6 0.00 0.76 0.76 82 1014.6
20260505174819 8 196 4.8 6.4 0.00 0.76 0.76 80 1014.8
20260505174317 8 164 4.8 4.8 0.00 0.76 0.76 82 1014.5
20260505173812 8 179 6.4 9.7 0.00 0.76 0.76 80 1014.7
20260505173309 8 165 6.4 9.7 0.00 0.76 0.76 80 1014.2
20260505172806 8 194 3.2 4.8 0.00 0.76 0.76 82 1014.2
20260505172305 8 201 8.0 11.3 0.00 0.76 0.76 83 1014.2
20260505171758 8 210 4.8 6.4 0.00 0.76 0.76 84 1014.1
20260505171255 8 162 6.4 9.7 0.00 0.76 0.76 82 1014.2
20260505170752 8 190 4.8 4.8 0.00 0.76 0.76 82 1014.2
20260505170249 8 164 8.0 9.7 0.00 0.76 0.76 82 1014.0
20260505165744 8 202 4.8 6.4 0.00 0.76 0.76 82 1013.9
20260505165240 8 161 6.4 6.4 0.00 0.76 0.76 82 1013.9
20260505164736 8 220 6.4 9.7 0.00 0.76 0.76 83 1013.7
20260505164233 8 162 6.4 6.4 0.00 0.76 0.76 84 1013.8
20260505163731 7 169 3.2 3.2 0.00 0.76 0.76 85 1013.8
20260505163230 7 165 4.8 6.4 0.00 0.76 0.76 84 1014.0
20260505162726 7 217 6.4 12.9 0.00 0.76 0.76 85 1013.5
20260505162223 7 212 4.8 6.4 0.00 0.76 0.76 86 1013.9
20260505161720 7 184 1.6 1.6 0.00 0.76 0.76 87 1014.1
20260505161218 7 165 3.2 4.8 0.00 0.76 0.76 85 1013.8
20260505160715 7 175 4.8 4.8 0.00 0.76 0.76 85 1013.7
20260505160213 7 165 0.0 0.0 0.00 0.76 0.76 86 1013.8
20260505153152 7 164 1.6 1.6 0.00 0.74 0.74 88 1013.4
20260505152649 7 168 0.0 0.0 0.00 0.74 0.74 89 1013.3
20260505152145 7 196 1.6 1.6 0.00 0.74 0.74 90 1013.2
20260505151640 7 176 1.6 1.6 0.00 0.74 0.74 92 1013.3
20260505151138 7 200 3.2 4.8 0.00 0.74 0.74 92 1013.2
20260505150633 7 175 0.0 1.6 0.00 0.74 0.74 93 1013.4
20260505150131 7 193 0.0 1.6 0.00 0.74 0.74 93 1013.4
20260505140559 6 193 0.0 0.0 0.18 0.61 0.61 94 1012.6
20260505125013 7 153 1.6 1.6 0.18 0.15 0.15 90 1011.6
20260505124509 7 153 3.2 3.2 0.00 0.13 0.13 90 1011.4
20260505124006 7 174 1.6 1.6 0.00 0.13 0.13 92 1011.4
20260505123503 7 217 0.0 0.0 0.13 0.13 0.13 93 1011.6
20260505122958 7 231 1.6 1.6 0.13 0.13 0.13 93 1011.6
20260505122455 7 208 1.6 1.6 0.00 0.10 0.10 93 1011.1
20260505121952 7 214 3.2 3.2 0.00 0.10 0.10 93 1011.1
20260505121449 7 200 1.6 3.2 0.00 0.10 0.10 93 1011.1
20260505120945 7 210 1.6 1.6 0.00 0.10 0.10 92 1011.1
20260505120442 7 201 0.0 0.0 0.00 0.10 0.10 92 1011.0
20260505115941 7 231 1.6 1.6 0.00 0.10 0.10 92 1011.4
20260505115437 7 246 3.2 3.2 0.00 0.10 0.10 91 1011.5
20260505114936 7 252 4.8 4.8 0.18 0.10 0.10 91 1011.5
20260505114431 7 257 3.2 3.2 0.18 0.10 0.10 90 1011.5
20260505113927 7 260 3.2 3.2 0.13 0.08 0.08 89 1011.5
20260505113424 7 245 3.2 3.2 0.30 0.08 0.08 87 1011.5
20260505112920 7 221 1.6 3.2 0.18 0.05 0.05 85 1011.5
20260505112418 7 203 0.0 0.0 0.13 0.03 0.03 85 1011.4
20260505111915 7 220 4.8 4.8 0.13 0.03 0.03 83 1011.4
20260505111415 7 200 1.6 3.2 0.00 0.00 0.00 83 1011.4
20260505110911 7 240 3.2 3.2 0.00 0.00 0.00 82 1011.4
20260505110408 7 226 4.8 6.4 0.00 0.00 0.00 81 1011.4
20260505101839 7 177 3.2 3.2 0.00 0.00 0.00 81 1011.2
20260505101334 7 185 1.6 1.6 0.00 0.00 0.00 81 1011.2
20260505100830 7 165 0.0 0.0 0.00 0.00 0.00 84 1011.2
20260505100327 7 189 1.6 1.6 0.00 0.00 0.00 85 1011.1
20260505095822 7 189 1.6 1.6 0.00 0.00 0.00 86 1011.1
20260505095320 7 188 0.0 0.0 0.00 0.00 0.00 85 1011.1
20260505094816 7 188 0.0 0.0 0.00 0.00 0.00 85 1011.7
20260505094313 7 202 1.6 1.6 0.00 0.00 0.00 86 1011.5
20260505093808 7 213 1.6 1.6 0.00 0.00 0.00 86 1011.4
20260505093307 7 230 3.2 3.2 0.00 0.00 0.00 86 1011.6
20260505092803 7 225 1.6 1.6 0.00 0.00 0.00 86 1011.7
20260505092304 7 213 3.2 3.2 0.00 0.00 0.00 86 1011.5
20260505091758 7 199 4.8 4.8 0.00 0.00 0.00 85 1011.7
20260505091256 7 209 3.2 4.8 0.00 0.00 0.00 84 1011.6
20260505090754 7 167 1.6 1.6 0.00 0.00 0.00 83 1011.5
20260505090252 7 206 4.8 4.8 0.00 0.00 0.00 83 1011.5
20260505085749 7 213 8.0 12.9 0.00 0.00 0.00 82 1011.6
20260505085247 7 122 8.0 11.3 0.00 0.00 0.00 82 1011.7
20260505084744 7 181 0.0 0.0 0.00 0.00 0.00 83 1011.7
20260505084244 8 182 6.4 9.7 0.00 0.00 0.00 82 1011.7
20260505083740 8 157 8.0 11.3 0.00 0.00 0.00 80 1011.7
20260505083236 7 151 6.4 9.7 0.00 0.00 0.00 81 1011.8
20260505082732 7 195 4.8 6.4 0.00 0.00 0.00 80 1012.0
20260505082230 7 190 0.0 0.0 0.00 0.00 0.00 81 1011.6
20260505081725 8 210 1.6 3.2 0.00 0.00 0.00 82 1011.7
20260505081223 7 158 4.8 4.8 0.00 0.00 0.00 79 1012.0
20260505080720 8 211 3.2 4.8 0.00 0.00 0.00 80 1012.2
20260505080215 8 162 6.4 6.4 0.00 0.00 0.00 79 1011.7
20260505075711 8 190 4.8 4.8 0.00 0.00 0.00 79 1012.0
20260505075209 8 208 1.6 3.2 0.00 0.00 0.00 78 1012.0
20260505074706 8 215 3.2 3.2 0.00 0.00 0.00 78 1012.0
20260505074203 8 177 1.6 1.6 0.00 0.00 0.00 78 1012.0
20260505073700 8 190 3.2 3.2 0.00 0.00 0.00 78 1012.0
20260505073158 8 191 1.6 1.6 0.00 0.00 0.00 77 1011.7
20260505072654 8 171 6.4 9.7 0.00 0.00 0.00 75 1012.3
20260505072151 8 151 0.0 1.6 0.00 0.00 0.00 78 1012.3
20260505071646 7 190 3.2 3.2 0.00 0.00 0.00 81 1012.0
20260505071144 7 180 3.2 3.2 0.00 0.00 0.00 82 1011.9
20260505070641 7 146 4.8 6.4 0.00 0.00 0.00 81 1011.6
20260505070137 7 171 6.4 6.4 0.00 0.00 0.00 82 1011.6
20260505065633 7 177 3.2 3.2 0.00 0.74 0.74 83 1011.4
20260505065130 7 190 11.3 14.5 0.00 0.74 0.74 82 1011.6
20260505064627 7 214 4.8 4.8 0.00 0.74 0.74 83 1011.6
20260505064125 7 172 3.2 9.7 0.00 0.74 0.74 85 1011.7
20260505063622 7 208 6.4 11.3 0.00 0.74 0.74 85 1011.5
20260505063118 7 206 6.4 6.4 0.00 0.74 0.74 85 1011.6
20260505062615 7 192 8.0 12.9 0.00 0.74 0.74 85 1011.6
20260505062112 7 192 6.4 6.4 0.00 0.74 0.74 84 1011.6
20260505061609 7 201 6.4 9.7 0.00 0.74 0.74 84 1011.7
20260505061108 7 173 6.4 11.3 0.00 0.74 0.74 83 1011.7
20260505060605 7 174 3.2 3.2 0.00 0.74 0.74 83 1011.7
20260505055556 7 194 12.9 16.1 0.00 0.74 0.74 82 1011.5
20260505055053 7 154 11.3 14.5 0.00 0.74 0.74 81 1011.6
20260505054550 7 194 6.4 9.7 0.00 0.74 0.74 81 1011.6
20260505054049 7 208 4.8 6.4 0.00 0.74 0.74 81 1011.4
20260505053545 7 175 8.0 12.9 0.00 0.74 0.74 82 1011.6
20260505053042 7 185 6.4 9.7 0.00 0.74 0.74 83 1011.9
20260505052539 7 183 3.2 4.8 0.00 0.74 0.74 85 1011.8
20260505052037 7 156 6.4 9.7 0.00 0.74 0.74 84 1011.6
20260505051533 7 207 4.8 6.4 0.00 0.74 0.74 85 1011.7
20260505051032 7 208 4.8 4.8 0.00 0.74 0.74 84 1011.6
20260505050529 7 212 3.2 6.4 0.18 0.74 0.74 85 1011.7
20260505041457 9 177 3.2 3.2 0.00 0.61 0.61 74 1011.7
20260505040954 9 192 1.6 1.6 0.18 0.61 0.61 73 1011.6
20260505040452 9 233 0.0 0.0 0.18 0.61 0.61 71 1011.6
20260505035948 10 234 1.6 1.6 0.18 0.61 0.61 73 1011.5
20260505035444 10 238 3.2 4.8 0.00 0.58 0.58 69 1011.6
20260505034942 10 200 0.0 0.0 0.00 0.58 0.58 65 1011.2
20260505034438 10 202 3.2 3.2 0.00 0.58 0.58 68 1011.4
20260505033935 10 207 3.2 4.8 0.00 0.58 0.58 69 1011.4
20260505033432 10 195 4.8 4.8 0.00 0.58 0.58 67 1011.2
20260505032930 10 230 4.8 4.8 0.00 0.58 0.58 64 1010.9
20260505032427 10 311 3.2 4.8 0.00 0.58 0.58 63 1011.0
20260505031923 10 164 14.5 16.1 0.00 0.58 0.58 69 1010.8
20260505031420 10 154 4.8 6.4 0.00 0.58 0.58 70 1010.9
20260505030918 9 190 4.8 4.8 0.00 0.58 0.58 71 1010.9
20260505030413 9 155 8.0 9.7 0.00 0.58 0.58 70 1010.8
20260505025909 9 139 9.7 14.5 0.00 0.58 0.58 70 1010.5
20260505025407 9 177 6.4 6.4 0.00 0.58 0.58 72 1010.7
20260505024905 9 186 6.4 6.4 0.00 0.58 0.58 72 1010.4
20260505024403 9 204 12.9 14.5 0.00 0.58 0.58 74 1010.4
20260505023859 9 173 12.9 20.9 0.00 0.58 0.58 74 1010.2
20260505023356 9 159 11.3 16.1 0.00 0.58 0.58 74 1010.3
20260505022853 9 133 6.4 11.3 0.00 0.58 0.58 74 1010.4
20260505022350 9 197 8.0 11.3 0.00 0.58 0.58 75 1010.4
20260505021848 9 258 12.9 20.9 0.00 0.58 0.58 74 1010.5
20260505021344 9 177 11.3 12.9 0.00 0.58 0.58 74 1010.3
20260505020840 9 182 8.0 14.5 0.00 0.58 0.58 74 1010.5
20260505020336 9 183 4.8 9.7 0.00 0.58 0.58 73 1010.5